Waarnemingen

Advertentie
Mijn weer
Groningen Eelde, Nederland (6280): temperatuur & dauwpunt: 18.02.2017 09:00:00 - 24.02.2017 09:00:00 (CET)Groningen Eelde, Nederland (6280): temperatuur 5cm: 18.02.2017 09:00:00 - 24.02.2017 09:00:00 (CET)Groningen Eelde, Nederland (6280): windsnelheid & windstoten: 18.02.2017 09:00:00 - 24.02.2017 09:00:00 (CET)Groningen Eelde, Nederland (6280): windrichting: 18.02.2017 09:00:00 - 24.02.2017 09:00:00 (CET)Groningen Eelde, Nederland (6280): luchtdruk: 18.02.2017 09:00:00 - 24.02.2017 09:00:00 (CET)Groningen Eelde, Nederland (6280): zicht: 18.02.2017 09:00:00 - 24.02.2017 09:00:00 (CET)Groningen Eelde, Nederland (6280): neerslag: 18.02.2017 09:00:00 - 24.02.2017 09:00:00 (CET)
Datum & Tijd tt [°C] td [°C] tt 5cm [°C] ff [km/u] ff [kn] fx [km/u] fx [kn] dd ppp [hPa] vv [km] rr [mm]
24.02.2017 09:00:00 3,8 0,2 2,7 11 6 22 12 W 1008,1 10 0,0
24.02.2017 08:00:00 2,3 0,2 1,7 18 10 43 23 NW 1006,8 10 0,1
24.02.2017 07:00:00 3,7 0,0 2,6 22 12 47 25 NW 1005,1 10 0,0
24.02.2017 06:00:00 4,0 -0,5 3,1 22 12 36 19 WNW 1003,2 10 0,0
24.02.2017 05:00:00 3,8 -0,5 3,3 28 15 43 23 WNW 1001,5 10 0,0
24.02.2017 04:00:00 4,1 -0,5 3,3 28 15 50 27 WNW 999,8 10 0,0
24.02.2017 03:00:00 4,2 -0,4 3,6 34 18 50 27 WNW 998,2 10 0,0
24.02.2017 02:00:00 4,3 0,1 3,6 34 18 58 31 NW 996,2 10 0,0
24.02.2017 01:00:00 4,1 1,7 3,5 34 18 58 31 NW 993,5 10 0,4
24.02.2017 00:00:00 3,9 1,9 3,6 37 20 61 33 NNW 990,3 10 0,1
23.02.2017 23:00:00 4,4 3,5 4,3 22 12 58 31 WZW 986,9 3,7 0,6
23.02.2017 22:00:00 5,8 4,8 5,6 34 18 54 29 WZW 984,8 5 0,0
23.02.2017 21:00:00 6,0 4,4 5,5 39 21 68 37 WZW 983,5 10 0,4
23.02.2017 20:00:00 5,6 4,5 5,3 48 26 86 47 W 982,1 7 2,0
23.02.2017 19:00:00 5,8 4,3 5,5 52 28 94 51 WZW 980,6 6 1,3
23.02.2017 18:00:00 6,6 4,4 6,2 50 27 86 47 WZW 981,0 8 0,2
23.02.2017 17:00:00 7,2 4,1 6,5 57 31 86 47 ZW 982,1 10 0,4
23.02.2017 16:00:00 9,1 4,0 8,5 54 29 79 43 WZW 982,8 10 0,0
23.02.2017 15:00:00 9,9 6,0 9,4 54 29 86 47 WZW 983,7 10 0,2
23.02.2017 14:00:00 8,7 7,8 8,5 37 20 58 31 ZZW 984,2 6 2,9
23.02.2017 13:00:00 9,0 7,7 8,7 37 20 54 29 ZZW 986,6 10 0,5
23.02.2017 12:00:00 9,1 8,1 8,8 31 17 54 29 ZZW 989,7 10 0,3
23.02.2017 11:00:00 8,8 8,0 8,6 44 24 65 35 ZW 991,6 10 0,2
23.02.2017 10:00:00 8,5 7,9 8,0 34 18 50 27 ZW 993,0 10 1,6
23.02.2017 09:00:00 5,6 5,3 5,4 13 7 22 12 Z 994,7 6 3,3
23.02.2017 08:00:00 5,2 4,8 5,0 11 6 18 10 Z 996,4 9 1,9
23.02.2017 07:00:00 5,4 5,1 5,2 8 4 11 6 Z 997,7 8 2,2
23.02.2017 06:00:00 5,6 4,5 5,2 15 8 18 10 ZW 999,0 10 0,5
23.02.2017 05:00:00 6,0 4,4 5,6 15 8 22 12 ZW 999,8 10 0,0
23.02.2017 04:00:00 6,3 4,0 5,8 13 7 22 12 WZW 1000,7 10 0,0
23.02.2017 03:00:00 6,5 3,9 6,1 18 10 32 18 WZW 1001,3 10 0,0
23.02.2017 02:00:00 6,6 3,9 6,0 16 9 29 16 WZW 1001,7 10 0,0
23.02.2017 01:00:00 6,5 3,7 6,1 18 10 32 18 W 1001,8 10 0,0
23.02.2017 00:00:00 6,7 3,6 6,0 21 11 36 19 W 1002,0 10 0,0
22.02.2017 23:00:00 6,3 3,8 5,4 21 11 32 18 W 1002,1 10 0,0
22.02.2017 22:00:00 6,3 3,8 5,6 21 11 32 18 W 1002,0 10 0,0
22.02.2017 21:00:00 6,7 5,3 6,0 24 13 32 18 WZW 1001,9 10 0,0
22.02.2017 20:00:00 7,1 5,3 6,4 24 13 36 19 W 1001,8 10 0,0
22.02.2017 19:00:00 7,2 5,6 6,4 26 14 36 19 WZW 1001,6 10 0,0
22.02.2017 18:00:00 7,3 4,2 6,5 22 12 40 21 W 1001,4 10 0,0
22.02.2017 17:00:00 7,7 5,0 7,3 26 14 43 23 W 1001,3 10 0,0
22.02.2017 16:00:00 7,8 5,1 7,5 28 15 43 23 W 1001,3 10 0,0
22.02.2017 15:00:00 7,8 4,0 7,6 26 14 54 29 W 1001,4 10 0,1
22.02.2017 14:00:00 8,0 6,0 7,7 28 15 40 21 W 1001,5 10 0,2
22.02.2017 13:00:00 9,0 7,1 8,9 28 15 43 23 W 1001,7 10 0,2
22.02.2017 12:00:00 9,2 7,3 9,0 24 13 43 23 W 1002,0 10 0,0
22.02.2017 11:00:00 9,4 7,2 8,9 29 16 50 27 W 1001,9 10 0,1
22.02.2017 10:00:00 9,5 8,0 9,3 31 17 58 31 W 1001,6 10 0,1
22.02.2017 09:00:00 9,7 8,6 9,4 37 20 65 35 W 1001,0 10 0,5
22.02.2017 08:00:00 9,5 8,6 9,2 37 20 58 31 WZW 1000,5 10 0,5
22.02.2017 07:00:00 9,3 8,4 8,9 31 17 58 31 WZW 1000,3 5 0,4
22.02.2017 06:00:00 9,4 8,4 8,8 37 20 61 33 WZW 1000,7 9 1,9
22.02.2017 05:00:00 9,0 8,2 8,6 39 21 65 35 WZW 1001,3 8 2,8
22.02.2017 04:00:00 9,1 8,1 8,7 39 21 65 35 WZW 1001,8 8 1,0
22.02.2017 03:00:00 9,5 8,3 9,1 42 23 61 33 WZW 1002,6 10 0,1
22.02.2017 02:00:00 9,5 8,5 9,1 39 21 61 33 WZW 1003,3 8 0,2
22.02.2017 01:00:00 9,8 9,3 9,3 37 20 50 27 ZW 1004,3 2,8 0,4
22.02.2017 00:00:00 9,1 8,7 8,6 28 15 43 23 ZZW 1005,2 3,3 0,4
21.02.2017 23:00:00 8,2 7,1 7,7 24 13 40 21 ZZW 1006,8 7 0,0
21.02.2017 22:00:00 7,1 4,9 6,4 21 11 32 18 ZZW 1008,2 10 0,0
21.02.2017 21:00:00 5,8 4,3 5,2 16 9 25 14 ZZW 1009,8 10 0,0
21.02.2017 20:00:00 5,3 3,9 4,1 15 8 25 14 ZZW 1010,7 10 0,0
21.02.2017 19:00:00 4,2 3,1 2,8 13 7 18 10 ZW 1011,8 10 0,0
21.02.2017 18:00:00 6,4 3,5 5,1 15 8 25 14 WZW 1012,5 10 0,0
21.02.2017 17:00:00 8,4 3,9 8,0 18 10 32 18 WZW 1012,5 10 0,0
21.02.2017 16:00:00 9,0 4,0 9,2 22 12 32 18 W 1012,8 10 0,0
21.02.2017 15:00:00 9,1 4,0 8,7 21 11 32 18 W 1013,2 10 0,0
21.02.2017 14:00:00 9,6 4,3 9,9 22 12 40 21 W 1013,3 10 0,0
21.02.2017 13:00:00 9,1 4,7 8,9 24 13 40 21 WNW 1013,3 10 0,0
21.02.2017 12:00:00 8,6 4,9 9,4 22 12 36 19 WNW 1013,3 10 0,0
21.02.2017 11:00:00 8,6 5,8 8,5 21 11 32 18 W 1012,8 10 0,0
21.02.2017 10:00:00 7,7 4,9 7,9 15 8 25 14 W 1012,5 10 0,0
21.02.2017 09:00:00 7,1 4,7 6,4 15 8 32 18 W 1012,0 10 0,0
21.02.2017 08:00:00 6,5 4,3 5,6 18 10 29 16 W 1011,5 10 0,0
21.02.2017 07:00:00 6,9 4,4 6,0 21 11 36 19 W 1010,8 10 0,0
21.02.2017 06:00:00 7,6 4,7 7,1 21 11 32 18 W 1010,7 10 0,0
21.02.2017 05:00:00 7,8 5,1 7,2 18 10 32 18 W 1010,4 10 0,0
21.02.2017 04:00:00 7,5 5,7 7,0 18 10 29 16 W 1010,4 10 0,0
21.02.2017 03:00:00 7,7 5,2 7,0 15 8 29 16 W 1010,3 10 0,0
21.02.2017 02:00:00 7,8 6,1 6,8 15 8 29 16 W 1010,7 10 0,0
21.02.2017 01:00:00 8,4 7,2 8,0 15 8 29 16 W 1010,8 10 0,0
21.02.2017 00:00:00 9,2 7,8 8,7 18 10 29 16 W 1010,6 10 0,0
20.02.2017 23:00:00 9,7 8,4 9,3 18 10 36 19 W 1010,6 10 0,0
20.02.2017 22:00:00 9,9 9,0 9,5 21 11 36 19 W 1010,4 4,9 0,1
20.02.2017 21:00:00 9,9 9,4 9,4 18 10 32 18 W 1010,2 3,4 0,5
20.02.2017 20:00:00 10,0 9,4 9,7 24 13 40 21 W 1010,2 3,4 0,9
20.02.2017 19:00:00 9,9 9,3 9,7 24 13 36 19 WZW 1010,1 5 0,7
20.02.2017 18:00:00 10,6 9,3 10,3 28 15 43 23 W 1010,0 10 0,0
20.02.2017 17:00:00 10,6 9,3 10,2 28 15 43 23 WZW 1009,8 10 0,0
20.02.2017 16:00:00 9,9 9,4 9,7 28 15 43 23 WZW 1010,0 6 0,0
20.02.2017 15:00:00 9,5 9,3 9,4 28 15 47 25 WZW 1010,3 4,4 0,0
20.02.2017 14:00:00 9,0 8,9 8,9 29 16 43 23 WZW 1011,0 1,4 0,0
20.02.2017 13:00:00 8,9 8,7 8,8 28 15 43 23 WZW 1011,3 1,8 0,1
20.02.2017 12:00:00 8,8 8,4 8,8 26 14 43 23 WZW 1012,0 1,9 0,1
20.02.2017 11:00:00 8,7 8,2 8,5 28 15 43 23 WZW 1012,4 3,2 0,3
20.02.2017 10:00:00 8,3 7,9 8,1 28 15 43 23 WZW 1012,9 2,2 0,2
20.02.2017 09:00:00 7,9 7,6 7,6 26 14 43 23 ZW 1013,4 1,9 0,6
20.02.2017 08:00:00 7,7 7,1 7,5 29 16 43 23 ZW 1013,4 4,2 0,0
20.02.2017 07:00:00 7,6 6,6 7,3 28 15 40 21 ZW 1013,9 5 0,0
20.02.2017 06:00:00 7,5 6,5 7,3 26 14 36 19 ZW 1014,6 7 0,0
20.02.2017 05:00:00 7,4 6,3 7,0 24 13 36 19 ZW 1015,0 7 0,0
20.02.2017 04:00:00 7,0 6,1 6,6 21 11 29 16 ZW 1015,6 6 0,0
20.02.2017 03:00:00 6,7 5,8 6,4 18 10 25 14 ZW 1016,5 5 0,0
20.02.2017 02:00:00 6,2 5,6 5,9 16 9 25 14 ZW 1017,2 4,4 0,0
20.02.2017 01:00:00 6,3 5,7 6,0 18 10 25 14 ZW 1017,8 4,8 0,0
20.02.2017 00:00:00 6,4 5,9 6,2 16 9 29 16 WZW 1018,4 6 0,0
19.02.2017 23:00:00 6,4 6,0 6,2 15 8 25 14 WZW 1018,7 6 0,0
19.02.2017 22:00:00 6,4 6,0 6,2 16 9 25 14 WZW 1018,5 7 0,0
19.02.2017 21:00:00 6,4 6,0 6,2 18 10 25 14 WZW 1018,8 8 0,0
19.02.2017 20:00:00 6,6 6,1 6,4 13 7 18 10 WZW 1019,0 9 0,0
19.02.2017 19:00:00 7,1 5,9 6,8 13 7 22 12 W 1018,6 10 0,0
19.02.2017 18:00:00 7,4 5,8 7,1 15 8 25 14 W 1018,1 10 0,0
19.02.2017 17:00:00 8,1 5,9 7,9 16 9 29 16 WNW 1018,0 10 0,0
19.02.2017 16:00:00 8,8 5,9 8,9 15 8 25 14 WNW 1017,9 10 0,0
19.02.2017 15:00:00 8,6 6,5 8,6 16 9 29 16 W 1017,5 10 0,0
19.02.2017 14:00:00 8,4 6,9 9,0 15 8 29 16 W 1017,6 7 0,0
19.02.2017 13:00:00 7,7 6,8 7,6 16 9 25 14 WZW 1018,1 4,3 0,0
19.02.2017 12:00:00 6,6 5,9 6,5 18 10 29 16 WZW 1018,6 3,5 0,0
19.02.2017 11:00:00 6,0 5,6 5,9 18 10 32 18 WZW 1018,6 2,8 0,0
19.02.2017 10:00:00 5,7 5,2 5,4 26 14 36 19 WZW 1018,3 2,9 0,3
19.02.2017 09:00:00 5,4 4,9 5,1 18 10 25 14 ZW 1018,5 2,0 0,8
19.02.2017 08:00:00 4,9 4,2 4,7 21 11 29 16 ZW 1018,2 3,4 0,2
19.02.2017 07:00:00 4,9 3,7 4,6 22 12 32 18 ZW 1018,2 4,7 0,0
19.02.2017 06:00:00 4,7 3,4 4,3 21 11 36 19 ZW 1018,7 5 0,0
19.02.2017 05:00:00 4,8 3,3 4,4 24 13 36 19 ZW 1019,3 5 0,0
19.02.2017 04:00:00 4,2 2,8 3,0 18 10 29 16 ZW 1019,6 5 0,0
19.02.2017 03:00:00 3,6 2,0 3,1 18 10 25 14 ZZW 1020,5 7 0,0
19.02.2017 02:00:00 3,5 1,6 2,5 15 8 25 14 ZZW 1021,2 7 0,0
19.02.2017 01:00:00 3,7 1,7 2,9 16 9 25 14 ZZW 1022,1 8 0,0
19.02.2017 00:00:00 3,4 1,6 2,4 18 10 25 14 ZW 1022,4 8 0,0
18.02.2017 23:00:00 3,0 1,4 2,0 16 9 22 12 ZZW 1022,8 10 0,0
18.02.2017 22:00:00 3,4 1,8 1,9 15 8 22 12 ZZW 1023,1 10 0,0
18.02.2017 21:00:00 1,6 1,6 -2,9 8 4 11 6 ZZW 1023,5 2,5 0,0
18.02.2017 20:00:00 1,5 1,5 -2,3 8 4 11 6 Z 1023,8 1,7 0,0
18.02.2017 19:00:00 2,0 1,9 -1,7 9 5 11 6 ZZW 1024,3 3,4 0,0
18.02.2017 18:00:00 3,8 3,2 0,8 8 4 14 8 ZW 1024,5 4,8 0,0
18.02.2017 17:00:00 6,8 4,4 6,4 13 7 22 12 WZW 1024,9 9 0,0
18.02.2017 16:00:00 7,7 4,8 7,9 18 10 22 12 ZZW 1025,0 11 0,0
18.02.2017 15:00:00 6,6 4,6 6,9 15 8 22 12 ZW 1025,5 8 0,0
18.02.2017 14:00:00 5,8 4,5 6,3 15 8 22 12 ZW 1026,0 7 0,0
18.02.2017 13:00:00 5,0 4,0 5,2 13 7 18 10 ZW 1026,8 8 0,0
18.02.2017 12:00:00 4,0 3,4 4,2 15 8 22 12 ZW 1027,3 10 0,0
18.02.2017 11:00:00 3,2 2,9 3,4 16 9 22 12 ZW 1027,4 9 0,0
18.02.2017 10:00:00 2,7 2,5 2,9 13 7 18 10 ZZW 1027,3 9 0,0
18.02.2017 09:00:00 2,8 2,5 3,0 9 5 18 10 WZW 1027,2 4,2 0,0

tt = temperatuur
td = dauwpunt
tt 5cm = temperatuur 5cm
ff = windsnelheid
fx = windstoten
dd = windrichting
ppp = luchtdruk
vv = zicht
rr = neerslag

Weerstations in de omgeving